Time,TemperatureF,DewpointF,PressureIn,WindDirection,WindDirectionDegrees,WindSpeedMPH,WindSpeedGustMPH,Humidity,HourlyPrecipIn,Conditions,Clouds,dailyrainin,SoftwareType,DateUTC
2013-03-28 00:00:00,37.0,-99.9,-100.00,West,260,0.0,0.0,-999,-99.99,,,-99.99,,2013-03-28 06:00:00,
2013-03-28 00:52:00,37.0,-99.9,-100.00,West,260,0.0,0.0,-999,-99.99,,,-99.99,,2013-03-28 06:52:00,
2013-03-28 01:00:00,33.0,-99.9,-100.00,ENE,66,4.0,4.0,-999,-99.99,,,-99.99,,2013-03-28 07:00:00,
2013-03-28 01:52:00,33.0,-99.9,-100.00,ENE,66,4.0,4.0,-999,-99.99,,,-99.99,,2013-03-28 07:52:00,
2013-03-28 02:00:00,33.0,-99.9,-100.00,ENE,76,4.0,5.0,-999,-99.99,,,-99.99,,2013-03-28 08:00:00,
2013-03-28 02:52:00,33.0,-99.9,-100.00,ENE,76,4.0,5.0,-999,-99.99,,,-99.99,,2013-03-28 08:52:00,
2013-03-28 03:00:00,33.0,-99.9,-100.00,SE,125,3.0,4.0,-999,-99.99,,,-99.99,,2013-03-28 09:00:00,
2013-03-28 03:53:00,33.0,-99.9,-100.00,SE,125,3.0,4.0,-999,-99.99,,,-99.99,,2013-03-28 09:53:00,
2013-03-28 04:00:00,33.0,-99.9,-100.00,WSW,240,2.0,5.0,-999,-99.99,,,-99.99,,2013-03-28 10:00:00,
2013-03-28 04:53:00,33.0,-99.9,-100.00,WSW,240,2.0,5.0,-999,-99.99,,,-99.99,,2013-03-28 10:53:00,
2013-03-28 05:00:00,33.0,-99.9,-100.00,ENE,57,3.0,4.0,-999,-99.99,,,-99.99,,2013-03-28 11:00:00,
2013-03-28 05:52:00,33.0,-99.9,-100.00,ENE,57,3.0,4.0,-999,-99.99,,,-99.99,,2013-03-28 11:52:00,
2013-03-28 06:00:00,33.0,-99.9,-100.00,ENE,67,5.0,5.0,-999,-99.99,,,-99.99,,2013-03-28 12:00:00,
2013-03-28 06:52:00,33.0,-99.9,-100.00,ENE,67,5.0,5.0,-999,-99.99,,,-99.99,,2013-03-28 12:52:00,
2013-03-28 07:00:00,37.0,-99.9,-100.00,SW,234,3.0,5.0,-999,-99.99,,,-99.99,,2013-03-28 13:00:00,
2013-03-28 07:52:00,37.0,-99.9,-100.00,SW,234,3.0,5.0,-999,-99.99,,,-99.99,,2013-03-28 13:52:00,
2013-03-28 09:00:00,44.0,-99.9,-100.00,SSE,151,6.0,6.0,-999,-99.99,,,-99.99,,2013-03-28 15:00:00,
2013-03-28 09:53:00,44.0,-99.9,-100.00,SSE,151,6.0,6.0,-999,-99.99,,,-99.99,,2013-03-28 15:53:00,
2013-03-28 10:00:00,53.0,-99.9,-100.00,West,261,11.0,14.0,-999,-99.99,,,-99.99,,2013-03-28 16:00:00,
2013-03-28 10:52:00,53.0,-99.9,-100.00,West,261,11.0,14.0,-999,-99.99,,,-99.99,,2013-03-28 16:52:00,
2013-03-28 11:00:00,60.0,-99.9,-100.00,SW,234,10.0,16.0,-999,-99.99,,,-99.99,,2013-03-28 17:00:00,
2013-03-28 11:53:00,60.0,-99.9,-100.00,SW,234,10.0,16.0,-999,-99.99,,,-99.99,,2013-03-28 17:53:00,
2013-03-28 12:00:00,62.0,-99.9,-100.00,SW,225,17.0,20.0,-999,-99.99,,,-99.99,,2013-03-28 18:00:00,
2013-03-28 12:53:00,62.0,-99.9,-100.00,SW,225,17.0,20.0,-999,-99.99,,,-99.99,,2013-03-28 18:53:00,
2013-03-28 13:00:00,66.0,-99.9,-100.00,WSW,247,6.0,17.0,-999,-99.99,,,-99.99,,2013-03-28 19:00:00,
2013-03-28 13:53:00,66.0,-99.9,-100.00,WSW,247,6.0,17.0,-999,-99.99,,,-99.99,,2013-03-28 19:53:00,
2013-03-28 14:00:00,66.0,-99.9,-100.00,SSW,206,10.0,20.0,-999,-99.99,,,-99.99,,2013-03-28 20:00:00,
2013-03-28 14:53:00,66.0,-99.9,-100.00,SSW,206,10.0,20.0,-999,-99.99,,,-99.99,,2013-03-28 20:53:00,
2013-03-28 15:00:00,68.0,-99.9,-100.00,SSW,204,13.0,21.0,-999,-99.99,,,-99.99,,2013-03-28 21:00:00,
2013-03-28 15:53:00,68.0,-99.9,-100.00,SSW,204,13.0,21.0,-999,-99.99,,,-99.99,,2013-03-28 21:53:00,
2013-03-28 16:00:00,66.0,-99.9,-100.00,SSW,208,11.0,21.0,-999,-99.99,,,-99.99,,2013-03-28 22:00:00,
2013-03-28 16:53:00,66.0,-99.9,-100.00,SSW,208,11.0,21.0,-999,-99.99,,,-99.99,,2013-03-28 22:53:00,
2013-03-28 17:00:00,64.0,-99.9,-100.00,South,183,15.0,16.0,-999,-99.99,,,-99.99,,2013-03-28 23:00:00,
2013-03-28 17:53:00,64.0,-99.9,-100.00,South,183,15.0,16.0,-999,-99.99,,,-99.99,,2013-03-28 23:53:00,
2013-03-28 18:00:00,62.0,-99.9,-100.00,SSE,160,8.0,12.0,-999,-99.99,,,-99.99,,2013-03-29 00:00:00,
2013-03-28 18:52:00,62.0,-99.9,-100.00,SSE,160,8.0,12.0,-999,-99.99,,,-99.99,,2013-03-29 00:52:00,
2013-03-28 19:00:00,60.0,-99.9,-100.00,SSE,168,5.0,11.0,-999,-99.99,,,-99.99,,2013-03-29 01:00:00,
2013-03-28 19:53:00,60.0,-99.9,-100.00,SSE,168,5.0,11.0,-999,-99.99,,,-99.99,,2013-03-29 01:53:00,
2013-03-28 20:00:00,55.0,-99.9,-100.00,West,270,10.0,15.0,-999,-99.99,,,-99.99,,2013-03-29 02:00:00,
2013-03-28 20:53:00,55.0,-99.9,-100.00,West,270,10.0,15.0,-999,-99.99,,,-99.99,,2013-03-29 02:53:00,
2013-03-28 21:00:00,53.0,-99.9,-100.00,South,184,3.0,5.0,-999,-99.99,,,-99.99,,2013-03-29 03:00:00,
2013-03-28 22:00:00,50.0,-99.9,-100.00,ENE,70,4.0,5.0,-999,-99.99,,,-99.99,,2013-03-29 04:00:00,
2013-03-28 22:53:00,50.0,-99.9,-100.00,ENE,70,4.0,5.0,-999,-99.99,,,-99.99,,2013-03-29 04:53:00,
2013-03-28 23:00:00,46.0,-99.9,-100.00,ENE,76,6.0,7.0,-999,-99.99,,,-99.99,,2013-03-29 05:00:00,
2013-03-28 23:53:00,46.0,-99.9,-100.00,ENE,76,6.0,7.0,-999,-99.99,,,-99.99,,2013-03-29 05:53:00,